Date String (YYYY-MM-DD hh:mm:ss) UTC,Instrument flags,Ambient pressure (hPa),Sample flow (lpm),Bypass flow (lpm),Sample temperature (°C),Ambient temperature (°C),ASC tube jacket temperature (°C),LED temperature (°C),Box temperature (°C),Sample RH (%),Span deviation,Mass concentration (μg/m³),Mass concentration (μg/m³),Mass concentration (μg/m³)
DateTimeUTC,F1_M11,P_M11,Q1_M11,Q2_M11,T1_M11,T2_M11,T3_M11,T4_M11,T5_M11,U1_M11,ZSPAN_M11,X2_M11,X0_M11,X1_M11
2023-04-04 13:00:00,,0814.1,4.99,0.00,23.0,22.8,00.0,31.3,24.7,13.2,0000.0,0001.38,0002.25,0001.15
2023-04-04 13:01:00,,0814.1,5.02,0.00,23.0,22.4,00.0,31.3,24.5,13.2,0000.0,0001.38,0002.44,0001.14
2023-04-04 13:02:00,,0814.2,4.99,0.00,22.9,22.0,00.0,31.3,24.4,13.2,0000.0,0001.40,0002.77,0001.13
2023-04-04 13:03:00,,0814.1,4.99,0.00,22.9,21.7,00.0,31.3,24.3,13.3,0000.0,0001.41,0002.78,0001.13
2023-04-04 13:04:00,,0814.1,5.01,0.00,22.8,21.4,00.0,31.3,24.2,13.4,0000.0,0001.40,0002.45,0001.12
2023-04-04 13:05:00,,0814.0,5.01,0.00,22.8,21.2,00.0,31.3,24.2,13.4,0000.0,0001.37,0002.29,0001.12
2023-04-04 13:06:00,,0814.0,5.00,0.00,22.7,21.0,00.0,31.3,24.1,13.4,0000.0,0001.33,0002.20,0001.10
2023-04-04 13:07:00,,0814.0,4.99,0.00,22.7,20.8,00.0,31.2,24.0,13.5,0000.0,0001.31,0002.20,0001.09
2023-04-04 13:08:00,,0814.0,5.00,0.00,22.7,20.6,00.0,31.2,24.0,13.5,0000.0,0001.30,0002.19,0001.08
2023-04-04 13:09:00,,0814.1,5.01,0.00,22.7,21.0,00.0,31.2,24.2,13.5,0000.0,0001.29,0002.18,0001.08
2023-04-04 13:10:00,,0814.3,5.01,0.00,22.8,22.1,00.0,31.1,24.6,13.4,0000.0,0001.26,0002.13,0001.08
2023-04-04 13:11:00,,0814.4,5.00,0.00,22.9,23.1,00.0,31.1,24.9,13.3,0000.0,0001.29,0002.24,0001.08
2023-04-04 13:12:00,,0814.3,5.00,0.00,23.0,23.1,00.0,31.2,24.8,13.3,0000.0,0001.36,0003.40,0001.09
2023-04-04 13:13:00,,0814.4,4.99,0.00,23.0,22.8,00.0,31.2,24.6,13.3,0000.0,0001.40,0003.64,0001.12
2023-04-04 13:14:00,,0814.3,5.00,0.00,22.9,22.4,00.0,31.3,24.5,13.4,0000.0,0001.46,0003.84,0001.14
2023-04-04 13:15:00,,0814.3,5.00,0.00,22.9,22.1,00.0,31.3,24.4,13.4,0000.0,0001.52,0004.17,0001.16
2023-04-04 13:16:00,,0814.2,5.00,0.00,22.8,21.7,00.0,31.3,24.3,13.5,0000.0,0001.60,0004.39,0001.18
2023-04-04 13:17:00,,0814.2,5.00,0.00,22.8,21.4,00.0,31.3,24.2,13.5,0000.0,0001.67,0004.52,0001.21
2023-04-04 13:18:00,,0814.2,5.00,0.00,22.8,21.2,00.0,31.2,24.1,13.5,0000.0,0001.71,0004.55,0001.24
2023-04-04 13:19:00,,0814.2,5.00,0.00,22.7,21.0,00.0,31.2,24.1,13.6,0000.0,0001.79,0004.84,0001.27
2023-04-04 13:20:00,,0814.2,5.00,0.00,22.7,20.8,00.0,31.2,24.0,13.6,0000.0,0001.83,0006.74,0001.28
2023-04-04 13:21:00,,0814.3,5.00,0.00,22.6,20.6,00.0,31.2,23.9,13.6,0000.0,0001.85,0006.75,0001.29
2023-04-04 13:22:00,,0814.3,5.00,0.00,22.6,20.5,00.0,31.1,23.9,13.6,0000.0,0001.82,0006.60,0001.28
2023-04-04 13:23:00,,0814.3,5.01,0.00,22.6,21.1,00.0,31.1,24.2,13.6,0000.0,0001.81,0006.03,0001.28
2023-04-04 13:24:00,,0814.3,5.01,0.00,22.8,22.3,00.0,31.0,24.6,13.6,0000.0,0001.79,0005.07,0001.26
2023-04-04 13:25:00,,0814.4,4.99,0.00,22.9,23.1,00.0,31.0,24.9,13.5,0000.0,0001.73,0005.31,0001.24
2023-04-04 13:26:00,,0814.4,5.00,0.00,22.9,23.0,00.0,31.1,24.7,13.4,0000.0,0001.73,0005.31,0001.23
2023-04-04 13:27:00,,0814.4,5.00,0.00,22.9,22.7,00.0,31.2,24.5,13.5,0000.0,0001.71,0005.30,0001.21
2023-04-04 13:28:00,,0814.3,5.01,0.00,22.9,22.3,00.0,31.2,24.4,13.5,0000.0,0001.66,0005.24,0001.18
2023-04-04 13:29:00,,0814.3,5.00,0.00,22.8,21.9,00.0,31.2,24.3,13.5,0000.0,0001.62,0005.15,0001.17
2023-04-04 13:30:00,,0814.3,5.00,0.00,22.8,21.6,00.0,31.2,24.2,13.6,0000.0,0001.57,0005.07,0001.14
2023-04-04 13:31:00,,0814.3,5.00,0.00,22.7,21.3,00.0,31.2,24.1,13.6,0000.0,0001.51,0003.51,0001.13
2023-04-04 13:32:00,,0814.3,5.00,0.00,22.7,21.1,00.0,31.2,24.0,13.6,0000.0,0001.52,0003.04,0001.11
2023-04-04 13:33:00,,0814.3,5.00,0.00,22.6,20.8,00.0,31.1,24.0,13.6,0000.0,0001.54,0003.11,0001.11
2023-04-04 13:34:00,,0814.3,5.02,0.00,22.6,20.6,00.0,31.1,23.9,13.7,0000.0,0001.53,0003.21,0001.12
2023-04-04 13:35:00,,0814.4,5.00,0.00,22.5,20.5,00.0,31.1,23.8,13.7,0000.0,0001.55,0003.54,0001.11
2023-04-04 13:36:00,,0814.3,5.00,0.00,22.5,20.7,00.0,31.0,24.0,13.8,0000.0,0001.55,0004.57,0001.11
2023-04-04 13:37:00,,0814.4,5.01,0.00,22.6,21.7,00.0,30.9,24.4,13.7,0000.0,0001.56,0005.24,0001.12
2023-04-04 13:38:00,,0814.3,5.00,0.00,22.8,22.8,00.0,30.9,24.7,13.6,0000.0,0001.57,0005.07,0001.11
2023-04-04 13:39:00,,0814.3,5.00,0.00,22.8,23.0,00.0,31.0,24.7,13.5,0000.0,0001.57,0005.03,0001.12
2023-04-04 13:40:00,,0814.4,5.01,0.00,22.8,22.7,00.0,31.1,24.5,13.5,0000.0,0001.60,0005.16,0001.11
2023-04-04 13:41:00,,0814.4,5.01,0.00,22.8,22.4,00.0,31.1,24.3,13.6,0000.0,0001.66,0005.48,0001.11
2023-04-04 13:42:00,,0814.4,4.99,0.00,22.7,22.0,00.0,31.1,24.2,13.6,0000.0,0001.70,0005.78,0001.11
2023-04-04 13:43:00,,0814.4,4.99,0.00,22.7,21.7,00.0,31.1,24.2,13.6,0000.0,0001.71,0005.91,0001.11
2023-04-04 13:44:00,,0814.3,5.01,0.00,22.7,21.3,00.0,31.1,24.1,13.6,0000.0,0001.65,0005.77,0001.09
2023-04-04 13:45:00,,0814.3,5.01,0.00,22.6,21.1,00.0,31.1,24.1,13.6,0000.0,0001.63,0006.63,0001.07
2023-04-04 13:46:00,,0814.3,5.00,0.00,22.6,20.9,00.0,31.1,24.0,13.7,0000.0,0001.57,0006.47,0001.05
2023-04-04 13:47:00,,0814.3,4.99,0.00,22.5,20.7,00.0,31.0,23.9,13.7,0000.0,0001.53,0005.37,0001.03
2023-04-04 13:48:00,,0814.3,5.00,0.00,22.5,20.6,00.0,31.0,23.9,13.7,0000.0,0001.46,0003.98,0001.00
2023-04-04 13:49:00,,0814.3,5.02,0.00,22.4,20.6,00.0,31.0,23.9,13.7,0000.0,0001.40,0003.89,0000.98
2023-04-04 13:50:00,,0814.3,4.99,0.00,22.5,21.5,00.0,30.9,24.3,13.6,0000.0,0001.32,0003.82,0000.96
2023-04-04 13:51:00,,0814.3,5.00,0.00,22.7,22.6,00.0,30.9,24.7,13.5,0000.0,0001.29,0003.71,0000.95
2023-04-04 13:52:00,,0814.3,5.00,0.00,22.8,23.2,00.0,31.0,24.8,13.5,0000.0,0001.22,0003.42,0000.93
2023-04-04 13:53:00,,0814.4,4.99,0.00,22.8,22.9,00.0,31.0,24.6,13.4,0000.0,0001.16,0003.18,0000.92
2023-04-04 13:54:00,,0814.4,5.00,0.00,22.8,22.6,00.0,31.1,24.4,13.4,0000.0,0001.12,0003.02,0000.91
2023-04-04 13:55:00,,0814.4,5.00,0.00,22.8,22.2,00.0,31.1,24.3,13.4,0000.0,0001.12,0003.04,0000.90
2023-04-04 13:56:00,,0814.3,5.00,0.00,22.7,21.8,00.0,31.1,24.2,13.4,0000.0,0001.11,0002.35,0000.90
2023-04-04 13:57:00,,0814.3,5.01,0.00,22.7,21.5,00.0,31.1,24.1,13.5,0000.0,0001.14,0001.99,0000.91
2023-04-04 13:58:00,,0814.3,5.00,0.00,22.6,21.2,00.0,31.1,24.1,13.5,0000.0,0001.18,0002.12,0000.93
2023-04-04 13:59:00,,0814.3,4.99,0.00,22.6,21.0,00.0,31.1,24.0,13.5,0000.0,0001.19,0002.17,0000.93
